Hourly Data Report for November 26, 2017

All times are specified in Local Standard Time (LST). Add 1 hour to adjust for Daylight Saving Time where and when it is observed.

BATHURST A
NEW BRUNSWICK

47°37'47.000" N
65°44'20.000" W
58.80 m
8100505
71574
ZBF

Download Data

Hourly Data (November 2017)
Hourly Data Report for November 26, 2017
Temp Definition
°C
Dew Point Temp Definition
°C
Rel Hum Definition
%
Wind Dir Definition
10's deg

Wind Spd Definition
km/h
Visibility Definition
km
Stn Press Definition
kPa
Hmdx Definition


Wind Chill Definition


Weather Definition


TIME
00:00 Legend Double Dagger 4.5 3.1 90 24 9 24.1 99.46     LegendNANA
01:00 Legend Double Dagger 4.6 3.8 95 29 3 24.1 99.41     LegendNANA
02:00 Legend Double Dagger 2.7 2.5 99 17 3 4.8 99.41     Fog
03:00 Legend Double Dagger 4.4 2.0 84 28 9 24.1 99.40     LegendNANA
04:00 Legend Double Dagger 4.0 1.8 86 28 8 24.1 99.33     LegendNANA
05:00 Legend Double Dagger 3.9 1.7 86 36 2 24.1 99.30     Cloudy
06:00 Legend Double Dagger 2.2 1.0 92 36 1 24.1 99.28     LegendNANA
07:00 Legend Double Dagger 1.7 1.2 96 36 2 9.7 99.28     Rain,Fog
08:00 Legend Double Dagger 2.6 2.1 96 32 5 8.1 99.24     Rain,Fog
09:00 Legend Double Dagger 2.3 1.7 96 30 5 8.1 99.24     Rain,Fog
10:00 Legend Double Dagger 1.8 1.2 96 33 5 8.1 99.21     Rain,Fog
11:00 Legend Double Dagger 2.0 1.3 95 32 7 16.1 99.11     Rain
12:00 Legend Double Dagger 1.4 0.6 94 32 9 11.3 99.04     Snow
13:00 Legend Double Dagger 0.6 -0.8 90 30 17 4.8 99.00     Snow Showers,Snow Pellets,Fog
14:00 Legend Double Dagger -0.7 -1.8 92 30 25 0.6 98.97   -7 Moderate Snow Showers
15:00 Legend Double Dagger -1.5 -3.7 85 30 26 6.4 99.01   -8 Snow,Fog,Blowing Snow
16:00 Legend Double Dagger -2.4 -5.6 79 30 26 11.3 99.08   -9 Snow,Blowing Snow
17:00 Legend Double Dagger -3.0 -6.6 76 30 26 16.1 99.13   -10 Snow,Blowing Snow
18:00 Legend Double Dagger -3.4 -7.3 75 30 24 24.1 99.19   -10 Snow
19:00 Legend Double Dagger -3.8 -7.6 75 30 20 24.1 99.22   -10 Blowing Snow
20:00 Legend Double Dagger -3.9 -8.0 73 29 21 24.1 99.27   -10 Snow Showers,Blowing Snow
21:00 Legend Double Dagger -4.5 -8.9 71 29 19 24.1 99.26   -11 Blowing Snow
22:00 Legend Double Dagger -4.5 -8.1 76 29 18 24.1 99.30   -11 Blowing Snow
23:00 Legend Double Dagger -4.8 -9.2 71 29 15 24.1 99.28   -10 Snow Showers,Blowing Snow

Notes on Data Quality.

Legend

  • E = Estimated
  • M = Missing
  • NA = Not Available
  • ‡ = Partner data that is not subject to review by the National Climate Archives
Date modified: